Weather History for Rickenbacker, OH

Change the Weather History Date:

Thursday, February 28, 2013

  Actual Average Record
Temperature  
Mean Temperature 36 °F -  
Max Temperature 39 °F 44 °F 65 °F (2011)
Min Temperature 32 °F 28 °F 5 °F (2014)
Degree Days  
Heating Degree Days 30    
Moisture  
Dew Point 31 °F    
Average Humidity 82    
Maximum Humidity 88    
Minimum Humidity 74    
Precipitation  
Precipitation 0.00 in - - ()
Sea Level Pressure  
Sea Level Pressure 29.74 in    
Wind  
Wind Speed 12 mph (West)    
Max Wind Speed 17 mph    
Max Gust Speed 23 mph    
Visibility 8 miles    
Events Rain , Snow    
Averages and records for this station are not official NWS values.
T = Trace of Precipitation, MM = Missing Value Source: NWS Daily Summary

Daily Weather History Graph

Daily Weather History Graph

Search for Another Location

Airport:

Trip Planner

Search our weather history database for the weather conditions in past years. The results will help you decide how hot, cold, wet, or windy it might be!

Date:

Astronomy

Feb. 28, 2013 Rise Set
Actual Time 7:06 AM EST 6:22 PM EST
Civil Twilight 6:38 AM EST 6:50 PM EST
Nautical Twilight 6:07 AM EST 7:21 PM EST
Astronomical Twilight 5:36 AM EST 7:52 PM EST
Moon 9:48 PM EST (2/28) 8:15 AM EST (2/28)
Length of Visible Light 12h 11m
Length of Day
11h 16m
Waning Gibbous, 91% of the Moon is Illuminated
Feb 28
Waning Gibbous
Mar 4
Last Quarter
Mar 11
New
Mar 19
First Quarter
Mar 27
Full

Hourly Weather History & Observations

Time (EST) Temp. Windchill Dew Point Humidity Pressure Visibility Wind Dir Wind Speed Gust Speed Precip Events Conditions
12:15 AM 34.5 °F 25.7 °F 30.2 °F 84% 29.66 in 10.0 mi SW 12.7 mph 19.6 mph N/A   Overcast
12:55 AM 34.7 °F 25.5 °F 29.8 °F 82% 29.66 in 10.0 mi WSW 13.8 mph 20.7 mph N/A   Overcast
1:15 AM 34.5 °F 26.2 °F 29.7 °F 82% 29.66 in 10.0 mi SW 11.5 mph - N/A   Overcast
1:35 AM 34.3 °F 25.5 °F 29.5 °F 82% 29.66 in 10.0 mi WSW 12.7 mph - N/A   Overcast
1:55 AM 34.3 °F 26.5 °F 29.1 °F 81% 29.67 in 10.0 mi WSW 10.4 mph - N/A   Overcast
2:15 AM 34.3 °F 26.5 °F 29.3 °F 82% 29.66 in 10.0 mi WSW 10.4 mph - N/A   Overcast
2:35 AM 34.2 °F 27.5 °F 29.3 °F 82% 29.66 in 10.0 mi SW 8.1 mph - N/A   Overcast
2:55 AM 34.0 °F 25.5 °F 29.7 °F 84% 29.65 in 5.0 mi SW 11.5 mph 16.1 mph N/A Snow Light Snow
3:15 AM 33.8 °F 25.3 °F 29.5 °F 84% 29.65 in 5.0 mi WSW 11.5 mph 20.7 mph N/A Snow Light Snow
3:35 AM 33.4 °F 23.9 °F 28.9 °F 84% 29.65 in 7.0 mi WSW 13.8 mph - N/A   Overcast
3:55 AM 33.3 °F 25.1 °F 29.1 °F 85% 29.65 in 4.0 mi WSW 10.4 mph - N/A Snow Light Snow
4:15 AM 33.1 °F 25.5 °F 29.3 °F 86% 29.65 in 2.5 mi WSW 9.2 mph - N/A Snow Light Snow
4:55 AM 32.5 °F 24.8 °F 29.3 °F 88% 29.65 in 2.5 mi SW 9.2 mph - N/A Snow Light Snow
5:15 AM 32.9 °F 22.8 °F 29.1 °F 86% 29.65 in 10.0 mi SW 15.0 mph 18.4 mph N/A   Overcast
5:35 AM 33.3 °F 24.1 °F 28.8 °F 84% 29.66 in 10.0 mi SW 12.7 mph - N/A   Overcast
5:55 AM 33.4 °F 23.9 °F 28.8 °F 83% 29.66 in 10.0 mi WSW 13.8 mph 18.4 mph N/A   Overcast
6:15 AM 33.4 °F 24.3 °F 28.4 °F 82% 29.66 in 10.0 mi SW 12.7 mph - N/A   Overcast
6:35 AM 33.4 °F 24.8 °F 28.8 °F 83% 29.66 in 10.0 mi SW 11.5 mph 16.1 mph N/A   Overcast
6:55 AM 33.3 °F 23.7 °F 28.9 °F 84% 29.66 in 3.0 mi SW 13.8 mph 19.6 mph N/A Snow Light Snow
7:15 AM 33.1 °F 24.4 °F 29.1 °F 85% 29.67 in 3.0 mi SW 11.5 mph - N/A Snow Light Snow
7:35 AM 32.9 °F 24.7 °F 29.1 °F 86% 29.67 in 4.0 mi SW 10.4 mph - N/A Snow Light Snow
7:55 AM 32.9 °F 24.1 °F 29.3 °F 87% 29.67 in 4.0 mi SW 11.5 mph - N/A Snow Light Snow
8:15 AM 32.9 °F 23.2 °F 29.3 °F 87% 29.68 in 7.0 mi WSW 13.8 mph - N/A Snow Light Snow
8:35 AM 33.3 °F 23.7 °F 29.3 °F 85% 29.68 in 7.0 mi WSW 13.8 mph 19.6 mph N/A Snow Light Snow
8:55 AM 33.4 °F 23.1 °F 29.3 °F 85% 29.69 in 5.0 mi WSW 16.1 mph 21.9 mph N/A Snow Light Snow
9:15 AM 33.8 °F 24.3 °F 29.5 °F 84% 29.69 in 7.0 mi WSW 13.8 mph 18.4 mph N/A Snow Light Snow
9:35 AM 33.8 °F 24.3 °F 29.7 °F 85% 29.69 in 7.0 mi WSW 13.8 mph 18.4 mph N/A   Overcast
9:55 AM 33.8 °F 24.8 °F 30.0 °F 86% 29.70 in 2.5 mi WSW 12.7 mph 18.4 mph N/A Snow Light Snow
10:15 AM 33.8 °F 25.3 °F 30.0 °F 86% 29.70 in 5.0 mi WSW 11.5 mph 19.6 mph N/A   Overcast
10:35 AM 34.0 °F 25.5 °F 30.2 °F 86% 29.70 in 4.0 mi WSW 11.5 mph - N/A   Overcast
10:55 AM 34.3 °F 25.9 °F 30.6 °F 86% 29.70 in 4.0 mi WSW 11.5 mph - N/A Snow Light Snow
11:15 AM 35.1 °F 25.9 °F 31.3 °F 86% 29.71 in 5.0 mi WSW 13.8 mph - N/A Snow Light Snow
11:35 AM 36.1 °F 27.3 °F 32.0 °F 85% 29.71 in 7.0 mi West 13.8 mph - N/A Rain Light Rain
11:55 AM 36.7 °F 27.2 °F 32.2 °F 84% 29.72 in 10.0 mi West 16.1 mph - N/A Rain Light Rain
12:15 PM 37.4 °F 27.8 °F 32.4 °F 82% 29.72 in 10.0 mi West 17.3 mph 23.0 mph N/A Rain Light Rain
12:55 PM 38.3 °F 30.1 °F 33.4 °F 83% 29.72 in 10.0 mi West 13.8 mph - N/A Rain Light Rain
1:15 PM 38.7 °F 30.5 °F 32.9 °F 80% 29.73 in 10.0 mi West 13.8 mph 19.6 mph N/A   Overcast
1:35 PM 38.7 °F 29.8 °F 32.4 °F 78% 29.73 in 10.0 mi WNW 16.1 mph 21.9 mph N/A   Overcast
1:55 PM 38.7 °F 30.9 °F 32.0 °F 77% 29.73 in 10.0 mi NW 12.7 mph 19.6 mph N/A   Overcast
2:15 PM 39.0 °F 31.0 °F 31.8 °F 75% 29.74 in 10.0 mi West 13.8 mph 18.4 mph N/A   Overcast
2:35 PM 38.7 °F 30.5 °F 31.6 °F 76% 29.74 in 10.0 mi WNW 13.8 mph 20.7 mph N/A   Overcast
2:55 PM 38.7 °F 30.9 °F 31.6 °F 76% 29.75 in 10.0 mi WNW 12.7 mph 17.3 mph N/A   Overcast
3:15 PM 38.8 °F 31.6 °F 31.6 °F 75% 29.76 in 10.0 mi WNW 11.5 mph 17.3 mph N/A   Overcast
3:35 PM 38.5 °F 30.3 °F 31.6 °F 76% 29.76 in 7.0 mi WNW 13.8 mph 18.4 mph N/A   Overcast
3:55 PM 38.5 °F 32.7 °F 31.8 °F 77% 29.77 in 10.0 mi NW 8.1 mph - N/A   Overcast
4:15 PM 38.7 °F 31.4 °F 32.0 °F 77% 29.78 in 10.0 mi NW 11.5 mph 17.3 mph N/A   Overcast
4:35 PM 38.5 °F 31.6 °F 31.8 °F 77% 29.78 in 10.0 mi WNW 10.4 mph - N/A   Overcast
4:55 PM 37.9 °F 30.5 °F 32.0 °F 79% 29.80 in 4.0 mi WNW 11.5 mph - N/A   Haze
5:15 PM 37.4 °F 30.3 °F 32.2 °F 81% 29.81 in 7.0 mi WNW 10.4 mph - N/A   Overcast
5:35 PM 37.6 °F 31.6 °F 32.2 °F 81% 29.81 in 10.0 mi West 8.1 mph - N/A   Overcast
5:55 PM 37.6 °F 30.0 °F 32.0 °F 80% 29.83 in 4.0 mi West 11.5 mph - N/A Rain Light Rain
6:15 PM 36.7 °F 31.2 °F 32.0 °F 83% 29.84 in 7.0 mi West 6.9 mph - N/A   Overcast
6:35 PM 36.0 °F 30.3 °F 32.0 °F 86% 29.84 in 10.0 mi West 6.9 mph - N/A   Overcast
7:15 PM 36.5 °F 28.7 °F 32.0 °F 84% 29.86 in 10.0 mi West 11.5 mph - N/A   Overcast
7:35 PM 36.1 °F 29.9 °F 32.0 °F 85% 29.87 in 10.0 mi West 8.1 mph - N/A   Overcast
7:55 PM 36.0 °F 29.0 °F 32.0 °F 86% 29.88 in 10.0 mi West 9.2 mph - N/A   Overcast
8:15 PM 35.6 °F 29.2 °F 31.8 °F 86% 29.88 in 10.0 mi WNW 8.1 mph - N/A   Overcast
8:35 PM 35.8 °F 30.1 °F 31.6 °F 85% 29.88 in 10.0 mi WNW 6.9 mph - N/A   Overcast
8:55 PM 36.0 °F 30.3 °F 31.8 °F 85% 29.88 in 10.0 mi WNW 6.9 mph - N/A   Overcast
9:15 PM 36.0 °F 30.3 °F 31.6 °F 84% 29.88 in 10.0 mi WNW 6.9 mph - N/A   Overcast
9:35 PM 36.0 °F 32.1 °F 31.5 °F 84% 29.88 in 10.0 mi NW 4.6 mph - N/A   Overcast
9:55 PM 36.0 °F 29.0 °F 30.9 °F 82% 29.90 in 10.0 mi NNW 9.2 mph - N/A   Overcast
10:15 PM 36.7 °F 29.9 °F 29.7 °F 76% 29.90 in 10.0 mi NNW 9.2 mph - N/A   Overcast
10:35 PM 36.5 °F 30.3 °F 28.9 °F 74% 29.90 in 10.0 mi NW 8.1 mph - N/A   Overcast
10:55 PM 36.1 °F 30.6 °F 29.1 °F 76% 29.90 in 10.0 mi NNW 6.9 mph - N/A   Overcast
11:15 PM 36.1 °F 31.4 °F 29.3 °F 76% 29.90 in 10.0 mi NNW 5.8 mph - N/A   Overcast
11:35 PM 36.0 °F 32.1 °F 29.5 °F 77% 29.90 in 10.0 mi NW 4.6 mph - N/A   Overcast